GFSGL_700_temp_021.txt.gz
Temp
-0 -0 -1 -1 -1 -1 -2 -2 -2 -2 -1 -1 -1 -0 -0 0 0 0 1 1 1 0 -0 -0 -0 -1 -1 -1 -1 -1 -1 -2 -2 -1 -1 -1 -1 -2 -2 -2 -2 -3 -2
-2 -2 -1 -1 -1 -2 -2 -2 -3 -3 -3 -2 -2 -1 -1 -1 -0 -0 -0 -0 0 0 -0 -0 0 -0 -0 -1 -1 -1 -2 -2 -3 -2 -2 -2 -2 -2 -2 -3 -3 -3 -3
-4 -3 -3 -3 -3 -3 -3 -3 -3 -4 -4 -3 -3 -3 -2 -2 -2 -1 -1 -1 -1 -1 -1 -1 -1 -1 -0 -1 -1 -1 -2 -2 -3 -2 -3 -2 -2 -1 -2 -3 -3 -3 -3
-5 -5 -5 -5 -5 -4 -4 -4 -5 -5 -5 -4 -4 -4 -4 -3 -3 -3 -3 -3 -2 -1 -1 -1 -1 -1 -1 -1 -1 -1 -2 -3 -3 -2 -3 -2 -2 -2 -1 -2 -3 -3 -4
-8 -7 -7 -7 -6 -6 -6 -6 -5 -6 -6 -6 -5 -5 -5 -5 -5 -5 -4 -4 -4 -3 -2 -2 -2 -1 -1 -1 -1 -1 -1 -2 -3 -2 -2 -3 -2 -2 -2 -2 -3 -4 -4
-10 -10 -10 -10 -9 -8 -7 -7 -7 -7 -7 -7 -7 -7 -6 -5 -5 -6 -7 -5 -4 -4 -3 -3 -2 -2 -2 -1 -1 -1 -1 -2 -2 -2 -2 -3 -3 -2 -3 -4 -4 -3 -4
-12 -13 -13 -13 -12 -12 -12 -12 -11 -9 -9 -9 -9 -9 -8 -8 -8 -7 -6 -6 -7 -5 -5 -4 -3 -3 -2 -2 -2 -1 -1 -1 -2 -3 -3 -2 -3 -3 -4 -6 -6 -5 -4
-13 -13 -14 -14 -14 -14 -14 -14 -14 -14 -13 -11 -10 -10 -11 -10 -9 -9 -8 -7 -6 -5 -6 -5 -4 -3 -3 -3 -3 -4 -2 -1 -2 -3 -3 -3 -3 -4 -5 -7 -8 -7 -6
-14 -14 -14 -14 -14 -14 -15 -15 -15 -15 -14 -14 -14 -12 -11 -11 -11 -11 -10 -9 -8 -7 -6 -5 -5 -4 -4 -3 -3 -5 -5 -4 -5 -4 -4 -4 -5 -6 -7 -8 -7 -6 -6
-15 -15 -15 -15 -15 -15 -15 -15 -15 -16 -16 -15 -15 -15 -14 -12 -12 -12 -12 -12 -10 -8 -7 -7 -6 -6 -6 -5 -4 -5 -4 -4 -4 -4 -5 -5 -6 -6 -8 -9 -9 -9 -8
-16 -16 -16 -16 -16 -16 -16 -16 -16 -16 -16 -15 -15 -15 -15 -15 -14 -13 -14 -14 -13 -11 -9 -7 -7 -7 -7 -7 -6 -5 -5 -5 -6 -5 -6 -6 -6 -7 -7 -8 -9 -10 -10
-17 -16 -16 -16 -16 -16 -16 -16 -16 -16 -16 -15 -15 -15 -15 -15 -15 -15 -14 -14 -14 -14 -11 -10 -9 -9 -8 -8 -8 -6 -5 -7 -6 -6 -6 -6 -6 -7 -8 -9 -11 -10 -11
-17 -17 -17 -17 -17 -17 -17 -17 -17 -17 -17 -16 -16 -16 -15 -15 -16 -15 -15 -14 -14 -15 -14 -12 -11 -11 -10 -9 -8 -7 -7 -7 -7 -6 -5 -6 -6 -7 -9 -10 -12 -11 -13
-17 -17 -17 -18 -18 -18 -18 -18 -18 -17 -17 -17 -17 -16 -16 -15 -15 -16 -16 -16 -15 -15 -14 -14 -13 -12 -11 -10 -9 -9 -7 -7 -7 -6 -6 -7 -8 -8 -8 -9 -14 -13 -14
-18 -18 -18 -18 -19 -19 -20 -20 -20 -20 -20 -20 -19 -18 -17 -15 -15 -16 -16 -17 -16 -15 -15 -15 -14 -13 -11 -11 -10 -10 -9 -8 -8 -8 -8 -8 -9 -9 -10 -10 -12 -14 -15
-19 -19 -20 -20 -21 -21 -21 -21 -22 -22 -23 -23 -22 -21 -19 -17 -16 -16 -16 -16 -16 -16 -17 -16 -15 -13 -12 -11 -11 -11 -11 -10 -9 -9 -10 -10 -9 -11 -12 -12 -12 -13 -15
-19 -20 -20 -21 -21 -21 -21 -21 -21 -21 -23 -23 -23 -22 -21 -19 -18 -17 -17 -16 -16 -17 -17 -16 -15 -14 -13 -12 -13 -12 -13 -12 -12 -11 -11 -12 -12 -13 -14 -14 -14 -14 -15
-20 -21 -21 -20 -21 -21 -22 -21 -22 -21 -20 -21 -23 -23 -22 -21 -20 -18 -18 -18 -17 -17 -17 -16 -15 -15 -14 -14 -13 -13 -14 -14 -14 -13 -14 -14 -14 -14 -15 -15 -15 -15 -16
-21 -21 -21 -21 -22 -21 -21 -21 -21 -21 -21 -21 -21 -22 -22 -20 -20 -19 -19 -18 -18 -17 -17 -16 -16 -15 -14 -15 -14 -14 -15 -16 -16 -16 -15 -16 -16 -16 -16 -16 -17 -16 -16
-20 -21 -21 -21 -22 -22 -22 -22 -22 -22 -21 -21 -21 -21 -21 -20 -20 -19 -19 -18 -17 -17 -17 -16 -17 -16 -16 -15 -16 -16 -17 -17 -17 -17 -17 -17 -17 -17 -17 -18 -17 -17 -17
-19 -20 -21 -22 -22 -22 -22 -22 -22 -22 -22 -21 -21 -22 -21 -21 -20 -19 -19 -18 -18 -18 -18 -19 -18 -17 -16 -17 -18 -18 -18 -18 -18 -18 -18 -18 -18 -19 -18 -18 -18 -19 -19
-19 -19 -20 -21 -22 -22 -22 -22 -22 -22 -22 -21 -21 -21 -21 -21 -20 -20 -20 -19 -20 -20 -20 -19 -19 -19 -19 -18 -19 -19 -19 -19 -19 -19 -19 -20 -20 -19 -19 -19 -19 -19 -19
-19 -19 -19 -20 -21 -22 -22 -23 -23 -23 -22 -22 -21 -21 -21 -21 -21 -21 -21 -20 -20 -20 -21 -20 -19 -19 -19 -19 -20 -20 -20 -20 -20 -20 -20 -20 -20 -20 -20 -20 -20 -20 -20
-19 -19 -19 -20 -20 -21 -22 -22 -23 -23 -23 -22 -22 -22 -21 -22 -21 -22 -22 -21 -21 -21 -20 -20 -20 -20 -20 -20 -21 -20 -20 -20 -20 -20 -21 -21 -20 -20 -20 -20 -20 -20 -20
-20 -20 -20 -20 -20 -20 -21 -22 -22 -23 -23 -23 -22 -23 -23 -22 -22 -21 -21 -21 -21 -21 -21 -21 -21 -21 -21 -21 -21 -21 -20 -20 -20 -20 -21 -21 -21 -21 -21 -21 -20 -20 -20
-20 -20 -20 -20 -20 -21 -21 -22 -22 -22 -23 -23 -23 -23 -23 -23 -22 -22 -22 -22 -22 -22 -22 -22 -22 -22 -21 -21 -21 -21 -21 -21 -21 -21 -21 -21 -21 -21 -21 -20 -20 -20 -20

GFSGL_700_temp_024.txt.gz
Temp
-3 -2 -2 -2 -2 -1 -1 -2 -2 -2 -3 -3 -2 -2 -2 -2 -2 -1 -1 -1 -0 -1 -1 -0 0 -1 -1 -1 -1 -2 -2 -2 -2 -2 -1 -1 -1 -1 -1 -2 -2 -2 -2
-3 -3 -2 -2 -3 -3 -3 -3 -3 -3 -4 -4 -4 -4 -4 -3 -3 -3 -3 -2 -1 -1 -1 -2 -1 -2 -1 -1 -1 -1 -2 -3 -3 -2 -1 -1 -1 -1 -2 -2 -2 -2 -2
-6 -6 -6 -5 -5 -5 -5 -5 -6 -5 -5 -5 -5 -5 -5 -5 -4 -4 -4 -3 -3 -3 -2 -2 -2 -2 -2 -2 -2 -1 -2 -3 -3 -3 -2 -1 -1 -2 -2 -2 -2 -3 -3
-8 -8 -8 -8 -7 -7 -7 -7 -7 -7 -6 -6 -6 -6 -6 -6 -6 -5 -5 -4 -4 -3 -3 -3 -3 -3 -3 -3 -3 -3 -3 -3 -4 -4 -3 -3 -2 -2 -3 -2 -2 -2 -3
-10 -10 -10 -10 -9 -9 -9 -9 -9 -8 -8 -8 -7 -7 -7 -6 -6 -7 -6 -5 -5 -4 -5 -4 -3 -3 -3 -3 -3 -3 -3 -3 -3 -4 -4 -3 -3 -2 -2 -1 -2 -3 -3
-12 -12 -12 -12 -12 -11 -11 -11 -11 -11 -10 -10 -9 -9 -9 -9 -8 -8 -8 -7 -6 -5 -5 -5 -5 -4 -4 -4 -4 -4 -4 -4 -4 -4 -4 -3 -2 -2 -3 -3 -3 -3 -3
-13 -13 -14 -14 -14 -14 -14 -14 -13 -13 -12 -12 -12 -11 -10 -9 -10 -11 -10 -10 -8 -7 -6 -6 -6 -5 -6 -5 -5 -6 -5 -4 -4 -4 -4 -3 -4 -3 -3 -3 -3 -3 -4
-14 -14 -14 -14 -14 -14 -14 -14 -14 -14 -14 -14 -13 -13 -13 -12 -11 -11 -12 -12 -11 -10 -9 -8 -7 -6 -6 -6 -7 -6 -6 -5 -4 -5 -3 -3 -4 -4 -4 -4 -6 -6 -6
-15 -15 -15 -15 -15 -15 -15 -15 -15 -16 -16 -15 -15 -15 -15 -14 -14 -14 -13 -13 -13 -12 -12 -11 -10 -9 -8 -7 -8 -7 -7 -6 -6 -4 -5 -4 -5 -5 -4 -5 -5 -6 -6
-15 -15 -16 -16 -16 -16 -16 -16 -16 -16 -16 -15 -15 -15 -15 -15 -15 -15 -15 -15 -15 -14 -14 -13 -12 -11 -10 -10 -10 -9 -8 -6 -7 -6 -5 -6 -6 -6 -5 -4 -5 -6 -6
-16 -16 -16 -16 -17 -16 -16 -16 -17 -17 -17 -16 -16 -15 -15 -15 -15 -15 -15 -16 -16 -15 -14 -14 -14 -13 -12 -11 -11 -10 -8 -9 -8 -7 -7 -6 -6 -6 -6 -5 -6 -7 -6
-16 -16 -16 -17 -17 -17 -17 -17 -17 -17 -17 -16 -16 -16 -15 -15 -15 -15 -16 -16 -16 -16 -15 -15 -14 -14 -14 -13 -12 -11 -10 -10 -10 -9 -7 -6 -6 -6 -5 -6 -6 -6 -8
-16 -17 -17 -17 -18 -18 -17 -17 -17 -18 -18 -18 -18 -17 -16 -17 -16 -16 -16 -16 -16 -16 -16 -15 -15 -14 -15 -15 -13 -12 -12 -12 -10 -10 -8 -6 -6 -7 -7 -8 -8 -8 -8
-17 -17 -18 -18 -18 -18 -18 -19 -19 -19 -19 -19 -19 -19 -18 -18 -19 -19 -18 -18 -17 -17 -17 -17 -16 -16 -15 -15 -15 -14 -13 -13 -11 -10 -10 -9 -8 -8 -8 -8 -8 -8 -9
-17 -18 -18 -18 -18 -18 -19 -19 -19 -20 -20 -19 -19 -19 -19 -18 -20 -20 -20 -20 -20 -20 -20 -18 -17 -16 -16 -16 -15 -15 -14 -14 -13 -11 -11 -11 -9 -9 -9 -9 -9 -9 -9
-18 -18 -18 -18 -19 -19 -19 -18 -20 -21 -21 -21 -21 -22 -21 -21 -22 -22 -22 -22 -22 -22 -22 -19 -17 -16 -16 -16 -16 -16 -15 -14 -14 -13 -13 -12 -12 -10 -11 -11 -11 -10 -11
-18 -18 -18 -19 -19 -20 -19 -19 -18 -20 -21 -22 -22 -22 -22 -21 -21 -22 -22 -22 -22 -24 -22 -20 -18 -18 -17 -17 -17 -16 -16 -15 -15 -15 -14 -13 -13 -13 -13 -13 -13 -14 -14
-18 -18 -18 -18 -20 -21 -21 -20 -20 -19 -19 -19 -21 -22 -22 -21 -21 -22 -23 -23 -22 -22 -21 -19 -18 -18 -18 -18 -17 -17 -16 -16 -16 -15 -14 -14 -14 -15 -15 -15 -16 -15 -15
-18 -18 -18 -18 -20 -21 -21 -21 -21 -21 -21 -20 -21 -21 -22 -22 -22 -22 -22 -23 -22 -21 -20 -21 -20 -19 -19 -18 -17 -17 -17 -17 -16 -16 -16 -16 -16 -16 -16 -17 -18 -18 -17
-18 -18 -18 -18 -19 -20 -21 -21 -21 -21 -21 -21 -21 -22 -21 -21 -21 -22 -22 -22 -21 -21 -21 -20 -20 -21 -21 -20 -18 -17 -18 -17 -17 -18 -17 -17 -18 -18 -18 -18 -19 -19 -18
-18 -19 -19 -19 -19 -19 -20 -21 -22 -22 -21 -22 -22 -22 -22 -21 -21 -21 -21 -21 -21 -21 -21 -20 -20 -20 -21 -20 -19 -18 -18 -18 -19 -19 -18 -18 -19 -19 -19 -20 -20 -19 -18
-19 -19 -19 -19 -19 -19 -20 -21 -22 -22 -22 -22 -22 -22 -22 -22 -22 -22 -22 -22 -22 -22 -21 -21 -21 -21 -21 -19 -19 -19 -19 -20 -20 -19 -19 -19 -20 -20 -20 -20 -19 -19 -20
-19 -19 -20 -20 -20 -20 -20 -21 -22 -22 -22 -22 -22 -23 -23 -22 -22 -22 -22 -22 -22 -22 -22 -21 -21 -20 -21 -20 -20 -20 -20 -20 -20 -20 -20 -20 -20 -20 -20 -20 -20 -20 -20
-20 -20 -20 -20 -20 -20 -20 -21 -22 -23 -23 -23 -23 -23 -23 -22 -23 -22 -22 -22 -22 -22 -21 -21 -21 -21 -21 -22 -21 -21 -21 -21 -21 -21 -21 -21 -21 -21 -21 -21 -21 -21 -21
-20 -20 -21 -21 -21 -21 -21 -21 -22 -22 -23 -23 -23 -23 -23 -23 -23 -23 -23 -23 -22 -22 -22 -22 -21 -21 -21 -21 -21 -21 -21 -21 -21 -21 -21 -21 -22 -22 -21 -21 -21 -21 -21
-20 -21 -21 -21 -22 -22 -22 -22 -22 -22 -22 -23 -24 -24 -24 -24 -23 -23 -23 -23 -23 -23 -23 -22 -22 -22 -22 -21 -21 -21 -21 -21 -21 -22 -22 -22 -22 -22 -22 -22 -21 -21 -21

GFSGL_700_temp_030.txt.gz
Temp
-6 -7 -7 -7 -7 -8 -8 -8 -8 -8 -7 -7 -7 -7 -7 -6 -5 -5 -4 -4 -3 -3 -4 -4 -4 -3 -3 -3 -3 -2 -2 -2 -1 0 -0 -1 -1 -1 -1 -1 -2 -2 -2
-8 -8 -8 -8 -8 -9 -9 -9 -9 -9 -9 -9 -8 -8 -8 -8 -8 -7 -7 -7 -6 -7 -6 -5 -5 -5 -4 -4 -4 -3 -3 -3 -3 -2 -1 -1 -1 -2 -2 -2 -2 -2 -2
-10 -10 -9 -9 -9 -9 -9 -10 -10 -9 -9 -9 -9 -9 -9 -9 -8 -8 -8 -8 -8 -7 -7 -7 -6 -6 -6 -5 -5 -5 -5 -4 -3 -3 -2 -3 -2 -2 -2 -2 -2 -2 -2
-11 -11 -11 -11 -11 -11 -11 -11 -10 -10 -10 -10 -10 -10 -10 -10 -10 -10 -10 -10 -10 -9 -8 -8 -7 -6 -6 -6 -6 -6 -6 -6 -5 -4 -3 -3 -3 -3 -3 -2 -2 -2 -3
-12 -12 -12 -12 -12 -12 -13 -13 -13 -13 -12 -12 -12 -12 -12 -12 -12 -12 -12 -11 -11 -10 -9 -9 -8 -8 -7 -7 -7 -6 -7 -7 -7 -6 -5 -4 -4 -4 -3 -3 -3 -3 -3
-13 -13 -13 -13 -14 -14 -14 -14 -14 -14 -14 -14 -13 -13 -12 -12 -12 -12 -13 -13 -12 -11 -10 -9 -9 -10 -10 -9 -9 -8 -7 -7 -7 -7 -6 -5 -5 -5 -5 -5 -4 -4 -3
-14 -14 -14 -14 -14 -14 -14 -14 -14 -14 -14 -14 -13 -13 -13 -13 -13 -13 -13 -13 -12 -12 -11 -11 -10 -9 -10 -10 -10 -10 -10 -9 -8 -8 -7 -6 -6 -6 -6 -6 -6 -5 -3
-14 -15 -15 -15 -15 -15 -15 -15 -15 -14 -14 -14 -14 -15 -15 -14 -15 -15 -15 -15 -14 -13 -12 -12 -12 -11 -11 -11 -11 -12 -11 -11 -10 -10 -9 -6 -7 -7 -8 -7 -7 -7 -6
-15 -15 -15 -15 -15 -15 -15 -15 -15 -15 -15 -15 -15 -15 -15 -15 -16 -16 -15 -15 -14 -14 -14 -13 -13 -13 -12 -13 -14 -12 -11 -11 -11 -11 -11 -10 -9 -9 -9 -9 -8 -7 -6
-15 -15 -16 -16 -16 -15 -15 -15 -15 -16 -16 -16 -16 -16 -15 -15 -16 -15 -15 -15 -14 -13 -14 -14 -14 -14 -13 -14 -15 -15 -14 -11 -13 -13 -13 -11 -11 -11 -11 -12 -9 -9 -7
-16 -16 -16 -16 -16 -15 -15 -16 -16 -16 -16 -16 -16 -15 -16 -16 -16 -16 -15 -15 -14 -14 -14 -14 -14 -15 -15 -15 -16 -15 -15 -14 -14 -14 -14 -14 -13 -12 -11 -12 -11 -10 -9
-16 -16 -16 -16 -16 -16 -16 -17 -17 -17 -16 -16 -15 -16 -17 -17 -17 -16 -16 -15 -15 -14 -14 -14 -15 -15 -16 -16 -17 -17 -16 -16 -16 -16 -15 -15 -14 -13 -12 -12 -12 -12 -11
-16 -17 -16 -16 -16 -16 -17 -17 -17 -17 -16 -16 -16 -17 -18 -17 -17 -17 -17 -17 -16 -16 -16 -16 -17 -17 -17 -17 -18 -18 -18 -17 -17 -17 -16 -15 -14 -15 -15 -14 -14 -13 -13
-17 -17 -17 -16 -16 -17 -17 -17 -17 -17 -17 -16 -17 -18 -18 -17 -16 -16 -16 -16 -17 -17 -16 -17 -17 -18 -19 -20 -21 -20 -19 -19 -19 -18 -18 -17 -16 -16 -15 -15 -15 -14 -14
-17 -17 -17 -17 -17 -17 -17 -18 -18 -18 -17 -17 -17 -18 -18 -18 -18 -18 -18 -18 -18 -18 -18 -18 -18 -18 -19 -20 -21 -21 -22 -21 -22 -20 -20 -19 -18 -18 -16 -16 -15 -15 -15
-17 -17 -17 -17 -17 -17 -18 -18 -18 -18 -18 -18 -18 -19 -19 -19 -19 -19 -19 -19 -19 -20 -20 -19 -20 -21 -22 -23 -23 -23 -23 -23 -23 -23 -22 -20 -20 -18 -18 -17 -16 -16 -15
-17 -17 -17 -17 -17 -18 -18 -18 -18 -19 -18 -18 -19 -20 -20 -20 -20 -20 -20 -20 -20 -20 -20 -21 -21 -21 -22 -23 -24 -23 -23 -24 -23 -22 -22 -21 -20 -19 -19 -18 -17 -16 -16
-18 -18 -18 -18 -18 -18 -18 -18 -19 -19 -18 -18 -19 -20 -20 -21 -21 -21 -20 -20 -20 -21 -22 -22 -22 -22 -22 -22 -23 -24 -24 -24 -24 -23 -22 -22 -20 -19 -19 -18 -17 -16 -16
-18 -18 -18 -18 -18 -18 -19 -19 -19 -20 -19 -19 -19 -20 -20 -21 -21 -21 -21 -21 -21 -22 -22 -22 -22 -22 -21 -22 -22 -22 -23 -23 -23 -23 -22 -21 -21 -20 -19 -18 -18 -17 -18
-18 -18 -18 -18 -19 -19 -19 -19 -20 -20 -20 -19 -19 -20 -20 -20 -21 -21 -22 -22 -22 -22 -22 -22 -22 -22 -22 -22 -22 -21 -21 -22 -22 -22 -22 -21 -21 -20 -20 -20 -20 -20 -19
-19 -19 -19 -19 -19 -20 -20 -20 -21 -21 -20 -20 -20 -21 -21 -22 -22 -22 -22 -22 -22 -22 -22 -23 -23 -22 -22 -22 -22 -22 -22 -21 -21 -22 -22 -22 -21 -21 -21 -20 -20 -20 -20
-19 -19 -20 -20 -20 -20 -20 -20 -21 -21 -21 -21 -21 -21 -22 -22 -22 -22 -23 -23 -23 -23 -23 -23 -22 -22 -22 -22 -22 -22 -22 -22 -22 -22 -22 -22 -21 -21 -21 -21 -21 -20 -20
-20 -20 -20 -21 -21 -21 -21 -21 -22 -21 -21 -21 -21 -21 -22 -22 -22 -22 -23 -23 -23 -23 -23 -23 -23 -23 -22 -22 -22 -22 -22 -22 -22 -22 -22 -21 -21 -21 -21 -21 -21 -21 -21
-20 -20 -21 -22 -21 -21 -22 -22 -22 -22 -22 -22 -22 -22 -22 -22 -22 -23 -23 -23 -23 -23 -23 -23 -23 -23 -22 -22 -22 -22 -22 -22 -22 -21 -21 -21 -21 -21 -21 -21 -21 -21 -21
-21 -21 -22 -22 -22 -22 -22 -23 -23 -22 -22 -22 -22 -23 -22 -23 -23 -23 -23 -23 -24 -24 -24 -24 -24 -23 -23 -23 -22 -22 -22 -22 -22 -22 -22 -22 -22 -22 -22 -22 -22 -22 -22
-21 -22 -22 -22 -22 -22 -22 -23 -23 -23 -23 -23 -23 -23 -23 -23 -23 -23 -23 -23 -23 -24 -24 -24 -24 -24 -24 -24 -23 -23 -23 -23 -23 -23 -22 -22 -22 -22 -22 -22 -22 -22 -22

GFSGL_700_temp_033.txt.gz
Temp
-6 -7 -7 -7 -7 -7 -8 -8 -8 -8 -9 -9 -8 -8 -8 -8 -8 -8 -8 -8 -7 -7 -7 -7 -6 -6 -5 -5 -3 -2 -3 -4 -3 -2 -2 -1 -0 -1 -1 -2 -2 -2 -2
-9 -9 -9 -9 -10 -10 -9 -10 -10 -10 -10 -10 -9 -9 -9 -9 -9 -9 -8 -8 -8 -8 -8 -8 -7 -7 -7 -7 -6 -6 -5 -4 -4 -3 -2 -2 -2 -2 -1 -1 -2 -3 -3
-9 -10 -10 -10 -11 -11 -11 -11 -11 -11 -11 -10 -10 -10 -10 -10 -11 -11 -10 -10 -9 -9 -8 -8 -7 -7 -7 -7 -7 -7 -7 -7 -6 -5 -3 -3 -2 -3 -2 -2 -2 -2 -3
-11 -11 -12 -12 -12 -12 -12 -12 -12 -12 -12 -12 -12 -12 -12 -12 -12 -12 -12 -11 -11 -11 -10 -9 -9 -8 -8 -8 -8 -7 -7 -7 -7 -7 -6 -4 -4 -4 -4 -2 -2 -2 -3
-12 -12 -12 -12 -13 -13 -13 -13 -13 -13 -13 -14 -14 -14 -13 -13 -13 -13 -12 -12 -11 -11 -11 -11 -11 -10 -10 -9 -9 -9 -9 -8 -8 -8 -7 -7 -6 -5 -5 -5 -4 -3 -3
-13 -13 -13 -13 -14 -14 -14 -14 -14 -14 -14 -14 -14 -14 -14 -14 -14 -14 -14 -13 -13 -12 -11 -11 -11 -11 -11 -11 -11 -11 -10 -10 -10 -9 -8 -7 -6 -7 -7 -7 -6 -5 -3
-14 -14 -14 -14 -14 -14 -14 -15 -15 -15 -15 -15 -14 -14 -14 -14 -15 -15 -15 -15 -15 -14 -14 -13 -12 -12 -13 -12 -12 -12 -11 -11 -11 -11 -10 -8 -8 -8 -8 -8 -7 -7 -6
-15 -15 -15 -15 -15 -15 -15 -15 -15 -15 -15 -15 -14 -14 -15 -15 -15 -15 -15 -15 -14 -14 -14 -14 -14 -13 -13 -13 -14 -13 -12 -12 -12 -13 -12 -11 -10 -9 -9 -10 -10 -9 -7
-15 -15 -16 -16 -16 -16 -16 -16 -16 -15 -15 -15 -15 -16 -16 -15 -15 -15 -15 -14 -13 -14 -14 -14 -14 -14 -14 -14 -13 -13 -13 -12 -13 -13 -13 -13 -12 -12 -12 -12 -11 -11 -8
-16 -16 -16 -16 -16 -16 -16 -16 -16 -15 -15 -15 -16 -16 -16 -16 -16 -15 -15 -16 -15 -15 -15 -15 -14 -14 -14 -14 -14 -14 -13 -13 -14 -13 -13 -13 -13 -13 -13 -14 -13 -12 -10
-16 -17 -17 -17 -17 -17 -16 -16 -16 -16 -16 -16 -17 -16 -16 -16 -16 -16 -17 -17 -17 -16 -15 -14 -14 -14 -14 -14 -15 -14 -14 -14 -14 -15 -14 -14 -14 -14 -14 -14 -14 -14 -13
-17 -17 -17 -17 -17 -17 -17 -16 -16 -16 -16 -17 -17 -17 -17 -17 -17 -17 -18 -18 -17 -16 -15 -14 -14 -14 -15 -15 -16 -15 -16 -16 -16 -16 -15 -15 -15 -14 -15 -15 -14 -15 -15
-17 -17 -17 -17 -17 -17 -17 -17 -16 -16 -16 -17 -17 -17 -17 -17 -16 -17 -18 -18 -18 -18 -17 -16 -15 -16 -16 -16 -17 -18 -18 -18 -18 -18 -17 -17 -16 -16 -18 -17 -15 -15 -16
-17 -17 -17 -17 -17 -17 -17 -17 -17 -17 -17 -17 -17 -17 -17 -17 -17 -17 -17 -17 -17 -17 -17 -17 -17 -17 -17 -17 -18 -18 -20 -20 -21 -21 -20 -18 -18 -18 -18 -20 -19 -16 -16
-17 -17 -17 -17 -18 -17 -17 -17 -17 -17 -17 -18 -18 -18 -18 -18 -17 -17 -18 -19 -19 -19 -18 -18 -18 -18 -18 -18 -18 -18 -19 -20 -21 -22 -21 -21 -20 -20 -19 -22 -21 -19 -17
-17 -17 -17 -18 -18 -18 -17 -17 -18 -18 -18 -19 -19 -19 -19 -19 -18 -19 -19 -20 -20 -20 -19 -19 -19 -20 -20 -20 -20 -20 -20 -22 -22 -23 -23 -23 -24 -23 -21 -22 -19 -20 -20
-17 -18 -18 -18 -18 -18 -18 -18 -18 -18 -19 -19 -19 -19 -20 -19 -19 -19 -20 -21 -21 -20 -20 -21 -21 -21 -21 -21 -21 -21 -21 -22 -23 -24 -24 -24 -23 -23 -23 -22 -20 -19 -19
-18 -18 -18 -18 -18 -18 -18 -18 -18 -18 -19 -20 -20 -20 -20 -20 -20 -20 -21 -21 -21 -22 -22 -22 -22 -22 -22 -22 -22 -22 -22 -22 -22 -23 -24 -24 -23 -22 -22 -22 -21 -20 -20
-18 -18 -18 -18 -19 -19 -19 -18 -19 -19 -19 -20 -20 -21 -20 -20 -20 -21 -21 -22 -22 -22 -22 -22 -22 -22 -22 -22 -22 -22 -22 -22 -22 -22 -23 -24 -23 -22 -22 -22 -21 -21 -20
-18 -18 -18 -19 -19 -19 -19 -19 -19 -20 -20 -21 -21 -21 -21 -20 -20 -20 -21 -21 -22 -22 -22 -22 -22 -22 -22 -22 -22 -22 -22 -22 -21 -22 -22 -22 -23 -23 -22 -22 -22 -21 -21
-18 -19 -19 -19 -19 -19 -19 -19 -20 -21 -21 -21 -21 -21 -21 -21 -21 -21 -21 -22 -22 -22 -23 -23 -23 -22 -23 -22 -22 -22 -22 -22 -22 -22 -22 -22 -22 -22 -22 -22 -22 -21 -21
-19 -19 -20 -20 -20 -20 -20 -20 -21 -21 -21 -22 -22 -22 -22 -21 -22 -22 -22 -22 -22 -23 -23 -23 -23 -23 -23 -23 -22 -22 -22 -22 -22 -22 -22 -22 -22 -22 -22 -22 -22 -22 -21
-20 -20 -20 -20 -20 -20 -20 -21 -22 -22 -22 -22 -22 -22 -22 -22 -22 -22 -22 -22 -23 -23 -23 -23 -24 -24 -23 -23 -23 -23 -22 -22 -22 -22 -22 -22 -22 -22 -22 -21 -21 -21 -21
-21 -21 -21 -21 -21 -21 -21 -22 -22 -22 -23 -23 -23 -23 -23 -23 -22 -22 -22 -23 -23 -23 -23 -24 -24 -24 -24 -23 -23 -23 -23 -23 -23 -22 -22 -22 -22 -22 -22 -21 -21 -21 -21
-22 -21 -21 -21 -21 -22 -22 -22 -22 -23 -23 -23 -23 -23 -23 -23 -23 -23 -23 -23 -23 -23 -23 -23 -23 -24 -24 -24 -24 -23 -23 -23 -23 -23 -22 -22 -22 -22 -22 -22 -22 -22 -22
-23 -23 -22 -22 -22 -22 -23 -23 -23 -23 -23 -23 -23 -23 -23 -23 -23 -23 -23 -23 -23 -23 -23 -23 -23 -23 -23 -24 -24 -24 -24 -23 -23 -23 -23 -23 -23 -23 -23 -23 -23 -22 -22